This is the latest recevied weather packets stored in our database for station/object KE0SWK-13. If no packets are shown the sender has not sent any weather packets the latest 10 day(s).
| Time | Temp. | Humidity | Pressure | Rain* | Wind** | Luminosity | Snow |
|---|---|---|---|---|---|---|---|
| 1777804235 | 9.44° C | 69% | 1018.8 hPa | 0 mm | - | - | - |
| 1777803028 | 9.44° C | 70% | 1019 hPa | 0 mm | - | - | - |
| 1777801239 | 9.44° C | 70% | 1019.1 hPa | 0 mm | - | - | - |
| 1777792221 | 9.44° C | 66% | 1020 hPa | 0 mm | - | - | - |
| 1777789823 | 8.89° C | 72% | 1020.3 hPa | 0 mm | - | - | - |
| 1777787420 | 8.33° C | 77% | 1020.7 hPa | 0 mm | - | - | - |
| 1777785027 | 8.33° C | 76% | 1021 hPa | 0 mm | - | - | - |
| 1777784424 | 8.33° C | 76% | 1021 hPa | 0 mm | - | - | - |
| 1777783823 | 7.78° C | 79% | 1021.1 hPa | 0 mm | - | - | - |
| 1777774820 | 9.44° C | 63% | 1021.1 hPa | 0 mm | - | - | - |
| 1777771842 | 12.22° C | 54% | 1020.8 hPa | 0 mm | - | - | - |
| 1777770620 | 13.89° C | 48% | 1020.8 hPa | 0 mm | - | - | - |
| 1777770049 | 14.44° C | 45% | 1020.8 hPa | 0 mm | - | - | - |
| 1777768234 | 16.11° C | 36% | 1020.7 hPa | 0 mm | - | - | - |
| 1777765822 | 17.78° C | 36% | 1020.9 hPa | 0 mm | - | - | - |
| 1777764064 | 19.44° C | 30% | 1020.9 hPa | 0 mm | - | - | - |
| 1777761631 | 18.89° C | 29% | 1021.1 hPa | 0 mm | - | - | - |
| 1777759224 | 18.89° C | 33% | 1021.2 hPa | 0 mm | - | - | - |
| 1777758649 | 19.44° C | 34% | 1021.3 hPa | 0 mm | - | - | - |
| 1777756220 | 19.44° C | 30% | 1021.6 hPa | 0 mm | - | - | - |
| 1777755626 | 18.89° C | 31% | 1021.8 hPa | 0 mm | - | - | - |
| 1777749026 | 19.44° C | 36% | 1022.8 hPa | 0 mm | - | - | - |
| 1777746645 | 20° C | 32% | 1023 hPa | 0 mm | - | - | - |
| 1777745422 | 18.33° C | 37% | 1023 hPa | 0 mm | - | - | - |
| 1777736440 | 15.56° C | 42% | 1023.7 hPa | 0 mm | - | - | - |
* Rain latest hour (hover to see other rain measurements)
** Current wind speed in m/s (hover to see current wind gust speed)